Year,Month,Day,Hour,Minute,Value (Times are PST for temperature in C)
2018,08,09,00,00,18.70
2018,08,09,00,01,18.70
2018,08,09,00,02,18.70
2018,08,09,00,03,18.70
2018,08,09,00,04,18.70
2018,08,09,00,05,18.70
2018,08,09,00,06,18.70
2018,08,09,00,07,18.70
2018,08,09,00,08,18.70
2018,08,09,00,09,18.70
2018,08,09,00,10,18.60
2018,08,09,00,11,18.60
2018,08,09,00,12,18.60
2018,08,09,00,13,18.60
2018,08,09,00,14,18.60
2018,08,09,00,15,18.60
2018,08,09,00,16,18.60
2018,08,09,00,17,18.50
2018,08,09,00,18,18.50
2018,08,09,00,19,18.50
2018,08,09,00,20,18.40
2018,08,09,00,21,18.40
2018,08,09,00,22,18.40
2018,08,09,00,23,18.40
2018,08,09,00,24,18.40
2018,08,09,00,25,18.30
2018,08,09,00,26,18.30
2018,08,09,00,27,18.30
2018,08,09,00,28,18.30
2018,08,09,00,29,18.20
2018,08,09,00,30,18.20
2018,08,09,00,31,18.20
2018,08,09,00,32,18.20
2018,08,09,00,33,18.10
2018,08,09,00,34,18.10
2018,08,09,00,35,18.10
2018,08,09,00,36,18.10
2018,08,09,00,37,18.10
2018,08,09,00,38,18.10
2018,08,09,00,39,18.00
2018,08,09,00,40,18.00
2018,08,09,00,41,18.00
2018,08,09,00,42,18.00
2018,08,09,00,43,18.00
2018,08,09,00,44,17.90
2018,08,09,00,45,17.90
2018,08,09,00,46,17.90
2018,08,09,00,47,17.90
2018,08,09,00,48,17.90
2018,08,09,00,49,17.90
2018,08,09,00,50,17.90
2018,08,09,00,51,17.90
2018,08,09,00,52,17.90
2018,08,09,00,53,17.90
2018,08,09,00,54,17.90
2018,08,09,00,55,17.90
2018,08,09,00,56,17.80
2018,08,09,00,57,17.80
2018,08,09,00,58,17.80
2018,08,09,00,59,17.80
2018,08,09,01,00,17.80
2018,08,09,01,01,17.80
2018,08,09,01,02,17.80
2018,08,09,01,03,17.80
2018,08,09,01,04,17.80
2018,08,09,01,05,17.80
2018,08,09,01,06,17.80
2018,08,09,01,07,17.80
2018,08,09,01,08,17.80
2018,08,09,01,09,17.80
2018,08,09,01,10,17.80
2018,08,09,01,11,17.80
2018,08,09,01,12,17.80
2018,08,09,01,13,17.80
2018,08,09,01,14,17.80
2018,08,09,01,15,17.80
2018,08,09,01,16,17.80
2018,08,09,01,17,17.70
2018,08,09,01,18,17.70
2018,08,09,01,19,17.70
2018,08,09,01,20,17.70
2018,08,09,01,21,17.70
2018,08,09,01,22,17.60
2018,08,09,01,23,17.60
2018,08,09,01,24,17.60
2018,08,09,01,25,17.60
2018,08,09,01,26,17.60
2018,08,09,01,27,17.60
2018,08,09,01,28,17.50
2018,08,09,01,29,17.50
2018,08,09,01,30,17.50
2018,08,09,01,31,17.40
2018,08,09,01,32,17.40
2018,08,09,01,33,17.40
2018,08,09,01,34,17.40
2018,08,09,01,35,17.40
2018,08,09,01,36,17.40
2018,08,09,01,37,17.40
2018,08,09,01,38,17.40
2018,08,09,01,39,17.40
2018,08,09,01,40,17.40
2018,08,09,01,41,17.30
2018,08,09,01,42,17.30
2018,08,09,01,43,17.30
2018,08,09,01,44,17.30
2018,08,09,01,45,17.30
2018,08,09,01,46,17.30
2018,08,09,01,47,17.30
2018,08,09,01,48,17.30
2018,08,09,01,49,17.30
2018,08,09,01,50,17.30
2018,08,09,01,51,17.30
2018,08,09,01,52,17.20
2018,08,09,01,53,17.20
2018,08,09,01,54,17.20
2018,08,09,01,55,17.20
2018,08,09,01,56,17.20
2018,08,09,01,57,17.30
2018,08,09,01,58,17.20
2018,08,09,01,59,17.30
2018,08,09,02,00,17.30
2018,08,09,02,01,17.30
2018,08,09,02,02,17.30
2018,08,09,02,03,17.30
2018,08,09,02,04,17.30
2018,08,09,02,05,17.30
2018,08,09,02,06,17.30
2018,08,09,02,07,17.30
2018,08,09,02,08,17.30
2018,08,09,02,09,17.30
2018,08,09,02,10,17.30
2018,08,09,02,11,17.30
2018,08,09,02,12,17.30
2018,08,09,02,13,17.30
2018,08,09,02,14,17.30
2018,08,09,02,15,17.30
2018,08,09,02,16,17.20
2018,08,09,02,17,17.20
2018,08,09,02,18,17.20
2018,08,09,02,19,17.20
2018,08,09,02,20,17.10
2018,08,09,02,21,17.10
2018,08,09,02,22,17.10
2018,08,09,02,23,17.10
2018,08,09,02,24,17.10
2018,08,09,02,25,17.10
2018,08,09,02,26,17.00
2018,08,09,02,27,17.00
2018,08,09,02,28,17.00
2018,08,09,02,29,17.00
2018,08,09,02,30,16.90
2018,08,09,02,31,16.90
2018,08,09,02,32,16.90
2018,08,09,02,33,16.90
2018,08,09,02,34,16.90
2018,08,09,02,35,16.80
2018,08,09,02,36,16.80
2018,08,09,02,37,16.80
2018,08,09,02,38,16.80
2018,08,09,02,39,16.80
2018,08,09,02,40,16.80
2018,08,09,02,41,16.80
2018,08,09,02,42,16.80
2018,08,09,02,43,16.70
2018,08,09,02,44,16.70
2018,08,09,02,45,16.70
2018,08,09,02,46,16.60
2018,08,09,02,47,16.60
2018,08,09,02,48,16.60
2018,08,09,02,49,16.60
2018,08,09,02,50,16.60
2018,08,09,02,51,16.60
2018,08,09,02,52,16.50
2018,08,09,02,53,16.50
2018,08,09,02,54,16.50
2018,08,09,02,55,16.50
2018,08,09,02,56,16.50
2018,08,09,02,57,16.40
2018,08,09,02,58,16.40
2018,08,09,02,59,16.40
2018,08,09,03,00,16.40
2018,08,09,03,01,16.40
2018,08,09,03,02,16.40
2018,08,09,03,03,16.30
2018,08,09,03,04,16.30
2018,08,09,03,05,16.30
2018,08,09,03,06,16.30
2018,08,09,03,07,16.30
2018,08,09,03,08,16.30
2018,08,09,03,09,16.30
2018,08,09,03,10,16.30
2018,08,09,03,11,16.20
2018,08,09,03,12,16.20
2018,08,09,03,13,16.20
2018,08,09,03,14,16.20
2018,08,09,03,15,16.20
2018,08,09,03,16,16.20
2018,08,09,03,17,16.20
2018,08,09,03,18,16.20
2018,08,09,03,19,16.20
2018,08,09,03,20,16.20
2018,08,09,03,21,16.10
2018,08,09,03,22,16.10
2018,08,09,03,23,16.10
2018,08,09,03,24,16.10
2018,08,09,03,25,16.10
2018,08,09,03,26,16.10
2018,08,09,03,27,16.10
2018,08,09,03,28,16.10
2018,08,09,03,29,16.10
2018,08,09,03,30,16.10
2018,08,09,03,31,16.10
2018,08,09,03,32,16.10
2018,08,09,03,33,16.00
2018,08,09,03,34,16.00
2018,08,09,03,35,16.00
2018,08,09,03,36,16.00
2018,08,09,03,37,16.00
2018,08,09,03,38,16.00
2018,08,09,03,39,15.90
2018,08,09,03,40,15.90
2018,08,09,03,41,15.90
2018,08,09,03,42,15.90
2018,08,09,03,43,15.90
2018,08,09,03,44,15.80
2018,08,09,03,45,15.80
2018,08,09,03,46,15.80
2018,08,09,03,47,15.80
2018,08,09,03,48,15.80
2018,08,09,03,49,15.80
2018,08,09,03,50,15.80
2018,08,09,03,51,15.80
2018,08,09,03,52,15.80
2018,08,09,03,53,15.80
2018,08,09,03,54,15.80
2018,08,09,03,55,15.80
2018,08,09,03,56,15.80
2018,08,09,03,57,15.80
2018,08,09,03,58,15.80
2018,08,09,03,59,15.80
2018,08,09,04,00,15.80
2018,08,09,04,01,15.80
2018,08,09,04,02,15.80
2018,08,09,04,03,15.80
2018,08,09,04,04,15.80
2018,08,09,04,05,15.80
2018,08,09,04,06,15.80
2018,08,09,04,07,15.80
2018,08,09,04,08,15.80
2018,08,09,04,09,15.70
2018,08,09,04,10,15.70
2018,08,09,04,11,15.70
2018,08,09,04,12,15.70
2018,08,09,04,13,15.70
2018,08,09,04,14,15.70
2018,08,09,04,15,15.70
2018,08,09,04,16,15.70
2018,08,09,04,17,15.60
2018,08,09,04,18,15.60
2018,08,09,04,19,15.60
2018,08,09,04,20,15.60
2018,08,09,04,21,15.60
2018,08,09,04,22,15.70
2018,08,09,04,23,15.70
2018,08,09,04,24,15.70
2018,08,09,04,25,15.70
2018,08,09,04,26,15.80
2018,08,09,04,27,15.80
2018,08,09,04,28,15.80
2018,08,09,04,29,15.80
2018,08,09,04,30,15.80
2018,08,09,04,31,15.80
2018,08,09,04,32,15.80
2018,08,09,04,33,15.90
2018,08,09,04,34,15.90
2018,08,09,04,35,15.90
2018,08,09,04,36,15.90
2018,08,09,04,37,15.90
2018,08,09,04,38,15.90
2018,08,09,04,39,15.90
2018,08,09,04,40,15.90
2018,08,09,04,41,15.90
2018,08,09,04,42,15.90
2018,08,09,04,43,15.90
2018,08,09,04,44,15.80
2018,08,09,04,45,15.80
2018,08,09,04,46,15.80
2018,08,09,04,47,15.80
2018,08,09,04,48,15.70
2018,08,09,04,49,15.70
2018,08,09,04,50,15.60
2018,08,09,04,51,15.60
2018,08,09,04,52,15.50
2018,08,09,04,53,15.50
2018,08,09,04,54,15.40
2018,08,09,04,55,15.40
2018,08,09,04,56,15.30
2018,08,09,04,57,15.30
2018,08,09,04,58,15.20
2018,08,09,04,59,15.20
2018,08,09,05,00,15.10
2018,08,09,05,01,15.00
2018,08,09,05,02,15.00
2018,08,09,05,03,14.90
2018,08,09,05,04,14.90
2018,08,09,05,05,14.80
2018,08,09,05,06,14.80
2018,08,09,05,07,14.70
2018,08,09,05,08,14.70
2018,08,09,05,09,14.60
2018,08,09,05,10,14.50
2018,08,09,05,11,14.50
2018,08,09,05,12,14.40
2018,08,09,05,13,14.40
2018,08,09,05,14,14.30
2018,08,09,05,15,14.30
2018,08,09,05,16,14.30
2018,08,09,05,17,14.20
2018,08,09,05,18,14.20
2018,08,09,05,19,14.10
2018,08,09,05,20,14.10
2018,08,09,05,21,14.10
2018,08,09,05,22,14.10
2018,08,09,05,23,14.10
2018,08,09,05,24,14.00
2018,08,09,05,25,14.00
2018,08,09,05,26,14.00
2018,08,09,05,27,14.00
2018,08,09,05,28,14.00
2018,08,09,05,29,13.90
2018,08,09,05,30,13.90
2018,08,09,05,31,13.90
2018,08,09,05,32,13.90
2018,08,09,05,33,13.90
2018,08,09,05,34,13.90
2018,08,09,05,35,13.90
2018,08,09,05,36,13.90
2018,08,09,05,37,13.80
2018,08,09,05,38,13.90
2018,08,09,05,39,13.80
2018,08,09,05,40,13.80
2018,08,09,05,41,13.80
2018,08,09,05,42,13.80
2018,08,09,05,43,13.80
2018,08,09,05,44,13.90
2018,08,09,05,45,13.90
2018,08,09,05,46,13.90
2018,08,09,05,47,13.90
2018,08,09,05,48,13.90
2018,08,09,05,49,13.90
2018,08,09,05,50,13.90
2018,08,09,05,51,13.90
2018,08,09,05,52,13.90
2018,08,09,05,53,13.80
2018,08,09,05,54,13.80
2018,08,09,05,55,13.80
2018,08,09,05,56,13.80
2018,08,09,05,57,13.80
2018,08,09,05,58,13.80
2018,08,09,05,59,13.80
2018,08,09,06,00,13.80
2018,08,09,06,01,13.80
2018,08,09,06,02,13.80
2018,08,09,06,03,13.80
2018,08,09,06,04,13.80
2018,08,09,06,05,13.70
2018,08,09,06,06,13.70
2018,08,09,06,07,13.70
2018,08,09,06,08,13.70
2018,08,09,06,09,13.70
2018,08,09,06,10,13.70
2018,08,09,06,11,13.70
2018,08,09,06,12,13.70
2018,08,09,06,13,13.70
2018,08,09,06,14,13.70
2018,08,09,06,15,13.70
2018,08,09,06,16,13.70
2018,08,09,06,17,13.60
2018,08,09,06,18,13.70
2018,08,09,06,19,13.60
2018,08,09,06,20,13.60
2018,08,09,06,21,13.60
2018,08,09,06,22,13.60
2018,08,09,06,23,13.60
2018,08,09,06,24,13.60
2018,08,09,06,25,13.60
2018,08,09,06,26,13.60
2018,08,09,06,27,13.60
2018,08,09,06,28,13.60
2018,08,09,06,29,13.60
2018,08,09,06,30,13.60
2018,08,09,06,31,13.60
2018,08,09,06,32,13.60
2018,08,09,06,33,13.60
2018,08,09,06,34,13.60
2018,08,09,06,35,13.60
2018,08,09,06,36,13.60
2018,08,09,06,37,13.60
2018,08,09,06,38,13.70
2018,08,09,06,39,13.70
2018,08,09,06,40,13.70
2018,08,09,06,41,13.70
2018,08,09,06,42,13.70
2018,08,09,06,43,13.70
2018,08,09,06,44,13.70
2018,08,09,06,45,13.70
2018,08,09,06,46,13.70
2018,08,09,06,47,13.70
2018,08,09,06,48,13.70
2018,08,09,06,49,13.80
2018,08,09,06,50,13.80
2018,08,09,06,51,13.80
2018,08,09,06,52,13.90
2018,08,09,06,53,13.90
2018,08,09,06,54,14.00
2018,08,09,06,55,14.00
2018,08,09,06,56,14.10
2018,08,09,06,57,14.10
2018,08,09,06,58,14.20
2018,08,09,06,59,14.20
2018,08,09,07,00,14.30
2018,08,09,07,01,14.40
2018,08,09,07,02,14.40
2018,08,09,07,03,14.40
2018,08,09,07,04,14.50
2018,08,09,07,05,14.60
2018,08,09,07,06,14.60
2018,08,09,07,07,14.70
2018,08,09,07,08,14.70
2018,08,09,07,09,14.80
2018,08,09,07,10,14.80
2018,08,09,07,11,14.80
2018,08,09,07,12,14.90
2018,08,09,07,13,15.00
2018,08,09,07,14,15.00
2018,08,09,07,15,15.10
2018,08,09,07,16,15.20
2018,08,09,07,17,15.20
2018,08,09,07,18,15.30
2018,08,09,07,19,15.30
2018,08,09,07,20,15.40
2018,08,09,07,21,15.40
2018,08,09,07,22,15.50
2018,08,09,07,23,15.60
2018,08,09,07,24,15.70
2018,08,09,07,25,15.70
2018,08,09,07,26,15.80
2018,08,09,07,27,15.80
2018,08,09,07,28,15.90
2018,08,09,07,29,15.90
2018,08,09,07,30,16.00
2018,08,09,07,31,16.10
2018,08,09,07,32,16.10
2018,08,09,07,33,16.20
2018,08,09,07,34,16.20
2018,08,09,07,35,16.20
2018,08,09,07,36,16.30
2018,08,09,07,37,16.40
2018,08,09,07,38,16.40
2018,08,09,07,39,16.50
2018,08,09,07,40,16.60
2018,08,09,07,41,16.60
2018,08,09,07,42,16.70
